| time (UTC) | temp F | wind direction | speed knots | gust knots | rain 1hr in | rain 24hr in | rain mn in | humidity % | barometer mb |
| 20260509184127 | 69 | 264 | 4.3 | 7.0 | 0.00 | 0.96 | 0.46 | 68 | 1008.0 |
| 20260509183224 | 68 | 244 | 5.2 | 11.3 | 0.00 | 0.96 | 0.46 | 70 | 1007.9 |
| 20260509182325 | 68 | 259 | 6.1 | 11.3 | 0.00 | 0.96 | 0.46 | 70 | 1008.0 |
| 20260509181424 | 68 | 225 | 7.0 | 11.3 | 0.00 | 0.96 | 0.46 | 69 | 1008.0 |
| 20260509180525 | 68 | 239 | 7.0 | 10.4 | 0.00 | 0.96 | 0.46 | 69 | 1008.0 |
| 20260509175749 | 67 | 188 | 7.0 | 10.4 | 0.00 | 0.96 | 0.46 | 69 | 1008.0 |
| 20260509175624 | 67 | 188 | 7.0 | 10.4 | 0.00 | 0.96 | 0.46 | 69 | 1008.0 |
| 20260509174724 | 67 | 243 | 7.0 | 10.4 | 0.00 | 0.96 | 0.46 | 69 | 1008.0 |
| 20260509173826 | 67 | 247 | 4.3 | 10.4 | 0.00 | 0.96 | 0.46 | 71 | 1008.3 |
| 20260509172924 | 67 | 205 | 6.1 | 13.9 | 0.00 | 0.96 | 0.46 | 70 | 1008.4 |
| 20260509172024 | 67 | 205 | 6.1 | 10.4 | 0.00 | 0.96 | 0.46 | 71 | 1008.5 |
| 20260509171125 | 66 | 257 | 6.1 | 10.4 | 0.00 | 0.96 | 0.46 | 73 | 1008.4 |
| 20260509170225 | 66 | 245 | 5.2 | 11.3 | 0.00 | 0.96 | 0.46 | 72 | 1008.4 |
| 20260509164501 | 66 | 234 | 4.3 | 8.7 | 0.00 | 0.96 | 0.46 | 75 | 1008.4 |
| 20260509164426 | 66 | 234 | 4.3 | 8.7 | 0.00 | 0.96 | 0.46 | 75 | 1008.4 |
| 20260509163526 | 66 | 253 | 6.1 | 10.4 | 0.00 | 0.96 | 0.46 | 71 | 1008.5 |
| 20260509162624 | 65 | 245 | 7.0 | 8.7 | 0.00 | 0.96 | 0.46 | 72 | 1008.5 |
| 20260509161724 | 65 | 207 | 6.1 | 10.4 | 0.00 | 0.96 | 0.46 | 70 | 1008.3 |
| 20260509160825 | 65 | 205 | 5.2 | 8.7 | 0.00 | 0.96 | 0.46 | 72 | 1008.3 |
| 20260509155927 | 64 | 252 | 4.3 | 7.8 | 0.00 | 0.96 | 0.46 | 72 | 1008.3 |
| 20260509155025 | 64 | 217 | 6.1 | 8.7 | 0.00 | 0.96 | 0.46 | 73 | 1008.3 |
| 20260509154126 | 63 | 271 | 5.2 | 2.6 | 0.00 | 0.96 | 0.46 | 75 | 1008.4 |
| 20260509153225 | 63 | 250 | 5.2 | 10.4 | 0.00 | 0.96 | 0.46 | 75 | 1008.4 |
| 20260509152324 | 63 | 217 | 2.6 | 6.1 | 0.00 | 0.96 | 0.46 | 77 | 1008.4 |
| 20260509151425 | 63 | 250 | 2.6 | 7.0 | 0.00 | 0.96 | 0.46 | 78 | 1008.5 |
| 20260509150525 | 62 | 223 | 4.3 | 6.1 | 0.00 | 0.96 | 0.46 | 78 | 1008.4 |
| 20260509145624 | 62 | 233 | 4.3 | 6.1 | 0.00 | 0.96 | 0.46 | 78 | 1008.4 |
| 20260509144726 | 62 | 277 | 2.6 | 4.3 | 0.00 | 0.96 | 0.46 | 81 | 1008.2 |
| 20260509143856 | 61 | 215 | 4.3 | 4.3 | 0.00 | 0.96 | 0.46 | 82 | 1008.3 |
| 20260509143825 | 61 | 215 | 4.3 | 4.3 | 0.00 | 0.96 | 0.46 | 82 | 1008.3 |
| 20260509142925 | 60 | 238 | 4.3 | 6.1 | 0.00 | 0.96 | 0.46 | 82 | 1008.2 |
| 20260509141125 | 58 | 186 | 4.3 | 5.2 | 0.00 | 0.96 | 0.46 | 84 | 1008.1 |
| 20260509140226 | 58 | 234 | 2.6 | 7.0 | 0.00 | 0.96 | 0.46 | 86 | 1008.0 |
| 20260509135324 | 58 | 245 | 0.9 | 2.6 | 0.00 | 0.96 | 0.46 | 87 | 1008.0 |
| 20260509134456 | 57 | 218 | 1.7 | 5.2 | 0.00 | 0.96 | 0.46 | 87 | 1008.0 |
| 20260509134425 | 57 | 218 | 1.7 | 5.2 | 0.00 | 0.96 | 0.46 | 87 | 1008.0 |
| 20260509133555 | 57 | 180 | 4.3 | 5.2 | 0.00 | 0.96 | 0.46 | 88 | 1008.0 |
| 20260509133524 | 57 | 180 | 4.3 | 5.2 | 0.00 | 0.96 | 0.46 | 88 | 1008.0 |
| 20260509132624 | 56 | 218 | 0.9 | 2.6 | 0.00 | 0.96 | 0.46 | 91 | 1008.1 |
| 20260509131757 | 55 | 206 | 1.7 | 4.3 | 0.00 | 0.96 | 0.46 | 90 | 1008.2 |
| 20260509131724 | 55 | 206 | 1.7 | 4.3 | 0.00 | 0.96 | 0.46 | 90 | 1008.2 |
| 20260509130824 | 55 | 234 | 1.7 | 2.6 | 0.00 | 0.96 | 0.46 | 91 | 1008.3 |
| 20260509125925 | 54 | 230 | 2.6 | 4.3 | 0.00 | 0.96 | 0.46 | 91 | 1008.2 |
| 20260509124125 | 54 | 258 | 2.6 | 6.1 | 0.00 | 0.96 | 0.46 | 91 | 1008.4 |
| 20260509123225 | 54 | 234 | 4.3 | 5.2 | 0.00 | 0.96 | 0.46 | 91 | 1008.3 |
| 20260509122325 | 54 | 229 | 2.6 | 5.2 | 0.00 | 0.96 | 0.46 | 91 | 1008.4 |
| 20260509121425 | 53 | 237 | 2.6 | 6.1 | 0.00 | 0.96 | 0.46 | 92 | 1008.3 |
| 20260509115625 | 53 | 258 | 0.9 | 1.7 | 0.00 | 0.96 | 0.46 | 92 | 1008.3 |
| 20260509114756 | 53 | 233 | 0.0 | 1.7 | 0.00 | 0.96 | 0.46 | 92 | 1008.1 |
| 20260509114725 | 53 | 233 | 0.0 | 1.7 | 0.00 | 0.96 | 0.46 | 92 | 1008.1 |
| 20260509113855 | 52 | 155 | 0.0 | 0.9 | 0.00 | 0.96 | 0.46 | 92 | 1007.9 |
| 20260509113824 | 52 | 155 | 0.0 | 0.9 | 0.00 | 0.96 | 0.46 | 92 | 1007.9 |
| 20260509112925 | 52 | 290 | 0.0 | 0.0 | 0.00 | 0.96 | 0.46 | 91 | 1008.1 |
| 20260509112119 | 52 | 278 | 0.9 | 0.9 | 0.00 | 0.96 | 0.46 | 91 | 1008.2 |
| 20260509112026 | 52 | 278 | 0.9 | 0.9 | 0.00 | 0.96 | 0.46 | 91 | 1008.2 |
| 20260509111157 | 53 | 233 | 0.0 | 0.9 | 0.00 | 0.96 | 0.46 | 91 | 1008.1 |
| 20260509111124 | 53 | 233 | 0.0 | 0.9 | 0.00 | 0.96 | 0.46 | 91 | 1008.1 |
| 20260509110225 | 53 | 200 | 0.9 | 1.7 | 0.00 | 0.96 | 0.46 | 91 | 1008.0 |
| 20260509105324 | 53 | 231 | 0.0 | 0.0 | 0.01 | 0.96 | 0.46 | 91 | 1007.9 |
| 20260509104456 | 53 | 266 | 0.0 | 0.9 | 0.01 | 0.96 | 0.46 | 91 | 1008.1 |
| 20260509104424 | 53 | 266 | 0.0 | 0.9 | 0.01 | 0.96 | 0.46 | 91 | 1008.1 |
| 20260509103602 | 53 | 286 | 0.9 | 0.9 | 0.02 | 0.96 | 0.46 | 91 | 1008.1 |
| 20260509103527 | 53 | 286 | 0.9 | 0.9 | 0.02 | 0.96 | 0.46 | 91 | 1008.1 |
| 20260509102627 | 53 | 246 | 0.9 | 1.7 | 0.02 | 0.96 | 0.46 | 91 | 1007.9 |
| 20260509101724 | 53 | 292 | 2.6 | 5.2 | 0.02 | 0.96 | 0.46 | 91 | 1008.0 |
| 20260509100824 | 53 | 304 | 2.6 | 4.3 | 0.02 | 0.96 | 0.46 | 90 | 1007.9 |
| 20260509095925 | 53 | 143 | 8.7 | 12.2 | 0.02 | 0.96 | 0.46 | 91 | 1007.0 |
| 20260509095024 | 53 | 231 | 1.7 | 4.3 | 0.01 | 0.95 | 0.45 | 91 | 1008.0 |
| 20260509094124 | 53 | 205 | 1.7 | 4.3 | 0.00 | 0.94 | 0.44 | 91 | 1008.2 |
| 20260509093225 | 53 | 194 | 2.6 | 5.2 | 0.00 | 0.94 | 0.44 | 91 | 1008.1 |
| 20260509092324 | 53 | 223 | 1.7 | 4.3 | 0.00 | 0.94 | 0.44 | 90 | 1008.1 |
| 20260509091424 | 53 | 235 | 1.7 | 2.6 | 0.01 | 0.94 | 0.44 | 90 | 1008.1 |
| 20260509090524 | 53 | 193 | 1.7 | 2.6 | 0.01 | 0.94 | 0.44 | 90 | 1007.9 |
| 20260509084723 | 53 | 219 | 0.9 | 2.6 | 0.01 | 0.94 | 0.44 | 90 | 1008.2 |
| 20260509083824 | 53 | 224 | 0.9 | 2.6 | 0.01 | 0.94 | 0.44 | 90 | 1008.1 |
| 20260509082924 | 53 | 236 | 1.7 | 5.2 | 0.02 | 0.94 | 0.44 | 90 | 1008.1 |
| 20260509082055 | 53 | 177 | 1.7 | 5.2 | 0.03 | 0.93 | 0.43 | 90 | 1008.2 |
| 20260509082023 | 53 | 177 | 1.7 | 5.2 | 0.03 | 0.93 | 0.43 | 90 | 1008.2 |
| 20260509081125 | 53 | 220 | 4.3 | 5.2 | 0.03 | 0.93 | 0.43 | 90 | 1008.2 |
| 20260509080224 | 53 | 166 | 2.6 | 4.3 | 0.04 | 0.93 | 0.43 | 90 | 1008.1 |
| 20260509075323 | 54 | 245 | 2.6 | 4.3 | 0.05 | 0.93 | 0.43 | 90 | 1008.3 |
| 20260509074424 | 54 | 224 | 2.6 | 5.2 | 0.05 | 0.93 | 0.43 | 90 | 1008.4 |
| 20260509073524 | 54 | 248 | 1.7 | 5.2 | 0.04 | 0.92 | 0.42 | 90 | 1008.8 |
| 20260509072625 | 54 | 267 | 0.9 | 2.6 | 0.05 | 0.92 | 0.42 | 90 | 1008.8 |
| 20260509071726 | 54 | 261 | 2.6 | 4.3 | 0.05 | 0.90 | 0.40 | 90 | 1008.9 |
| 20260509070824 | 54 | 270 | 0.9 | 2.6 | 0.07 | 0.90 | 0.40 | 90 | 1009.0 |
| 20260509065925 | 54 | 252 | 4.3 | 11.3 | 0.09 | 0.89 | 0.39 | 91 | 1009.0 |
| 20260509065025 | 54 | 265 | 4.3 | 5.2 | 0.09 | 0.88 | 0.38 | 91 | 1008.9 |
| 20260509064124 | 54 | 249 | 4.3 | 8.7 | 0.11 | 0.88 | 0.38 | 91 | 1009.2 |
| 20260509063224 | 54 | 250 | 2.6 | 6.1 | 0.13 | 0.87 | 0.37 | 91 | 1009.3 |
| 20260509062748 | 54 | 207 | 4.3 | 7.0 | 0.16 | 0.86 | 0.36 | 91 | 1009.4 |
| 20260509062325 | 54 | 207 | 4.3 | 7.0 | 0.16 | 0.86 | 0.36 | 91 | 1009.4 |
| 20260509061425 | 54 | 238 | 1.7 | 2.6 | 0.18 | 0.85 | 0.35 | 90 | 1009.4 |
| 20260509060524 | 54 | 195 | 2.6 | 4.3 | 0.19 | 0.83 | 0.33 | 90 | 1009.6 |
| 20260509055624 | 54 | 208 | 1.7 | 1.7 | 0.17 | 0.80 | 0.30 | 90 | 1009.5 |
| 20260509054726 | 54 | 243 | 2.6 | 2.6 | 0.17 | 0.78 | 0.28 | 90 | 1009.7 |
| 20260509053824 | 54 | 184 | 2.6 | 5.2 | 0.19 | 0.77 | 0.27 | 90 | 1009.7 |
| 20260509052925 | 54 | 216 | 2.6 | 10.4 | 0.16 | 0.72 | 0.22 | 90 | 1009.8 |
| 20260509052023 | 54 | 205 | 1.7 | 2.6 | 0.16 | 0.70 | 0.20 | 90 | 1009.7 |
| 20260509051126 | 54 | 129 | 1.7 | 4.3 | 0.13 | 0.66 | 0.16 | 90 | 1009.7 |
| 20260509050225 | 54 | 169 | 1.7 | 4.3 | 0.13 | 0.64 | 0.14 | 89 | 1009.8 |
| 20260509045323 | 54 | 194 | 2.6 | 4.3 | 0.00 | 0.63 | 0.13 | 89 | 1009.7 |
| 20260509044423 | 54 | 205 | 2.6 | 6.1 | 0.00 | 0.60 | 0.10 | 89 | 1009.9 |
| 20260509043524 | 54 | 198 | 2.6 | 6.1 | 0.00 | 0.58 | 0.08 | 89 | 1010.1 |
| 20260509042624 | 54 | 208 | 1.7 | 4.3 | 0.00 | 0.56 | 0.06 | 90 | 1010.2 |
| 20260509041725 | 54 | 246 | 1.7 | 4.3 | 0.00 | 0.54 | 0.04 | 90 | 1010.3 |
| 20260509035924 | 54 | 263 | 1.7 | 2.6 | 0.00 | 0.50 | 0.00 | 90 | 1010.5 |
| 20260509035024 | 54 | 255 | 2.6 | 5.2 | 0.16 | 0.48 | 0.48 | 90 | 1010.4 |
| 20260509034125 | 54 | 245 | 1.7 | 2.6 | 0.16 | 0.46 | 0.46 | 89 | 1010.3 |
| 20260509033223 | 55 | 271 | 1.7 | 7.0 | 0.13 | 0.42 | 0.42 | 89 | 1010.7 |
| 20260509032324 | 55 | 218 | 6.1 | 8.7 | 0.13 | 0.40 | 0.40 | 89 | 1010.4 |
| 20260509031425 | 55 | 222 | 2.6 | 6.1 | 0.14 | 0.37 | 0.37 | 89 | 1010.5 |
| 20260509030525 | 55 | 257 | 2.6 | 6.1 | 0.14 | 0.35 | 0.35 | 90 | 1010.8 |
| 20260509025624 | 55 | 246 | 4.3 | 7.0 | 0.15 | 0.33 | 0.33 | 90 | 1010.7 |
| 20260509024724 | 55 | 231 | 1.7 | 4.3 | 0.14 | 0.31 | 0.31 | 90 | 1010.7 |
| 20260509022924 | 54 | 217 | 4.3 | 7.0 | 0.14 | 0.28 | 0.28 | 90 | 1010.9 |
| 20260509021125 | 54 | 210 | 4.3 | 7.0 | 0.10 | 0.22 | 0.22 | 90 | 1010.8 |
| 20260509020224 | 54 | 208 | 1.7 | 2.6 | 0.09 | 0.20 | 0.20 | 90 | 1010.7 |
| 20260509015325 | 54 | 194 | 1.7 | 1.7 | 0.08 | 0.18 | 0.18 | 90 | 1010.6 |
| 20260509014425 | 54 | 281 | 0.9 | 0.9 | 0.08 | 0.16 | 0.16 | 89 | 1010.7 |
| 20260509013525 | 54 | 230 | 1.7 | 4.3 | 0.08 | 0.15 | 0.15 | 89 | 1010.4 |
| 20260509012625 | 54 | 202 | 2.6 | 4.3 | 0.07 | 0.14 | 0.14 | 89 | 1010.3 |
| 20260509011723 | 54 | 222 | 0.9 | 1.7 | 0.07 | 0.13 | 0.13 | 89 | 1010.5 |
| 20260509005924 | 54 | 286 | 0.9 | 0.9 | 0.06 | 0.11 | 0.11 | 89 | 1010.4 |
| 20260509005024 | 54 | 226 | 0.0 | 1.7 | 0.04 | 0.09 | 0.09 | 88 | 1010.2 |
| 20260509004125 | 54 | 290 | 0.9 | 1.7 | 0.04 | 0.08 | 0.08 | 88 | 1010.2 |
| 20260509003259 | 54 | 235 | 0.9 | 0.9 | 0.04 | 0.07 | 0.07 | 88 | 1010.0 |
| 20260509003226 | 54 | 235 | 0.9 | 0.9 | 0.04 | 0.07 | 0.07 | 88 | 1010.0 |
| 20260509002324 | 54 | 281 | 0.9 | 1.7 | 0.05 | 0.07 | 0.07 | 87 | 1010.1 |
| 20260509001424 | 55 | 282 | 0.9 | 0.9 | 0.05 | 0.06 | 0.06 | 87 | 1010.2 |
| 20260509000523 | 55 | 291 | 1.7 | 2.6 | 0.05 | 0.05 | 0.05 | 86 | 1010.3 |
| 20260508235624 | 55 | 285 | 0.9 | 1.7 | 0.05 | 0.05 | 0.05 | 86 | 1010.4 |
| 20260508234725 | 55 | 293 | 1.7 | 1.7 | 0.04 | 0.04 | 0.04 | 85 | 1010.2 |
| 20260508233824 | 55 | 289 | 1.7 | 2.6 | 0.04 | 0.04 | 0.04 | 84 | 1010.2 |
| 20260508232924 | 56 | 322 | 0.0 | 0.9 | 0.03 | 0.03 | 0.03 | 83 | 1010.3 |
| 20260508232025 | 56 | 307 | 1.7 | 2.6 | 0.01 | 0.01 | 0.01 | 81 | 1010.3 |
| 20260508231125 | 56 | 307 | 2.6 | 4.3 | 0.01 | 0.01 | 0.01 | 80 | 1010.5 |
| 20260508230223 | 57 | 303 | 5.2 | 5.2 | 0.00 | 0.00 | 0.00 | 78 | 1010.3 |
| 20260508225324 | 57 | 298 | 7.0 | 8.7 | 0.00 | 0.00 | 0.00 | 75 | 1010.3 |
| 20260508224425 | 59 | 286 | 7.0 | 10.4 | 0.00 | 0.00 | 0.00 | 73 | 1010.3 |
| 20260508223525 | 60 | 292 | 8.7 | 10.4 | 0.00 | 0.00 | 0.00 | 69 | 1010.2 |
| 20260508222626 | 61 | 284 | 7.0 | 10.4 | 0.00 | 0.00 | 0.00 | 67 | 1010.1 |
| 20260508221725 | 62 | 281 | 0.9 | 2.6 | 0.00 | 0.00 | 0.00 | 69 | 1009.9 |
| 20260508220825 | 62 | 224 | 1.7 | 1.7 | 0.00 | 0.00 | 0.00 | 63 | 1009.6 |
| 20260508215924 | 62 | 137 | 0.9 | 1.7 | 0.00 | 0.00 | 0.00 | 62 | 1009.3 |
| 20260508215024 | 63 | 173 | 0.0 | 1.7 | 0.00 | 0.00 | 0.00 | 61 | 1009.3 |
| 20260508214125 | 63 | 223 | 0.9 | 1.7 | 0.00 | 0.00 | 0.00 | 60 | 1009.4 |
| 20260508213223 | 63 | 226 | 0.0 | 0.9 | 0.00 | 0.00 | 0.00 | 61 | 1009.4 |
| 20260508212324 | 63 | 229 | 0.9 | 0.9 | 0.00 | 0.00 | 0.00 | 59 | 1009.6 |
| 20260508211425 | 63 | 239 | 0.9 | 2.6 | 0.00 | 0.00 | 0.00 | 60 | 1009.6 |
| 20260508210525 | 63 | 215 | 1.7 | 1.7 | 0.00 | 0.00 | 0.00 | 58 | 1009.8 |
| 20260508205629 | 63 | 237 | 0.0 | 0.9 | 0.00 | 0.00 | 0.00 | 61 | 1010.0 |
| 20260508204723 | 63 | 250 | 0.9 | 1.7 | 0.00 | 0.00 | 0.00 | 60 | 1010.0 |
| 20260508203824 | 63 | 220 | 0.9 | 0.9 | 0.00 | 0.00 | 0.00 | 60 | 1010.0 |
| 20260508202925 | 63 | 235 | 1.7 | 2.6 | 0.00 | 0.00 | 0.00 | 60 | 1010.2 |
| 20260508201123 | 63 | 278 | 1.7 | 1.7 | 0.00 | 0.00 | 0.00 | 59 | 1010.6 |
| 20260508200224 | 63 | 236 | 5.2 | 7.8 | 0.00 | 0.00 | 0.00 | 58 | 1010.7 |
| 20260508195323 | 63 | 228 | 1.7 | 4.3 | 0.00 | 0.00 | 0.00 | 59 | 1010.8 |
| 20260508194424 | 63 | 227 | 6.1 | 7.0 | 0.00 | 0.00 | 0.00 | 56 | 1010.9 |
| 20260508193524 | 63 | 258 | 4.3 | 7.0 | 0.00 | 0.00 | 0.00 | 57 | 1011.0 |
| 20260508192625 | 63 | 221 | 4.3 | 7.8 | 0.00 | 0.00 | 0.00 | 58 | 1011.1 |
| 20260508191724 | 63 | 247 | 2.6 | 2.6 | 0.00 | 0.00 | 0.00 | 57 | 1011.2 |
| 20260508190825 | 63 | 189 | 4.3 | 7.8 | 0.00 | 0.00 | 0.00 | 58 | 1011.6 |
| 20260508185923 | 64 | 228 | 5.2 | 7.0 | 0.00 | 0.00 | 0.00 | 56 | 1011.7 |
| 20260508185023 | 64 | 230 | 5.2 | 7.8 | 0.00 | 0.00 | 0.00 | 57 | 1011.7 |